timestamp,surface_pressure_avg,surface_temp_avg,battery_voltage,lat,long
2019-05-23 00:00:00+00:00,310.4963,1.11,13.21,47.84626,-54.09684
2019-05-23 00:10:00+00:00,314.923,1.0,13.05,47.84626,-54.09684
2019-05-23 00:20:00+00:00,328.1496,1.0,13.05,47.84626,-54.09684
2019-05-23 00:30:00+00:00,345.743,1.16,13.05,47.84626,-54.09684
2019-05-23 00:40:00+00:00,346.9912,1.2,13.05,47.84626,-54.09684
2019-05-23 00:50:00+00:00,351.4863,1.1,13.05,47.84626,-54.09684
2019-05-23 01:00:00+00:00,361.7229,1.0,12.97,47.84626,-54.09684
2019-05-23 01:10:00+00:00,367.6462,1.06,12.81,47.84626,-54.09684
2019-05-23 01:20:00+00:00,365.793,1.1,12.89,47.84626,-54.09684
2019-05-23 01:30:00+00:00,368.7813,1.0,12.97,47.84626,-54.09684
2019-05-23 01:40:00+00:00,375.7996,0.9,12.97,47.84626,-54.09684
2019-05-23 01:50:00+00:00,366.7646,0.92,12.97,47.84626,-54.09684
2019-05-23 02:00:00+00:00,364.1663,0.9,12.89,47.84626,-54.09684
2019-05-23 02:10:00+00:00,376.4095,0.83,12.81,47.84626,-54.09684
2019-05-23 02:20:00+00:00,384.5046,0.8,12.89,47.84626,-54.09684
2019-05-23 02:30:00+00:00,374.1413,0.9,12.89,47.84626,-54.09684
2019-05-23 02:40:00+00:00,366.4146,0.8,12.89,47.84626,-54.09684
2019-05-23 02:50:00+00:00,372.6562,0.7,12.97,47.84626,-54.09684
2019-05-23 03:00:00+00:00,365.298,0.7,12.81,47.84626,-54.09684
2019-05-23 03:10:00+00:00,356.7263,0.76,12.81,47.84626,-54.09684
2019-05-23 03:20:00+00:00,361.0563,0.6,12.89,47.84626,-54.09684
2019-05-23 03:30:00+00:00,354.023,0.6,12.89,47.84626,-54.09684
2019-05-23 03:40:00+00:00,342.3013,0.68,12.89,47.84626,-54.09684
2019-05-23 03:50:00+00:00,345.5196,0.6,12.89,47.84626,-54.09684
2019-05-23 04:00:00+00:00,354.2313,0.59,12.81,47.84626,-54.09684
2019-05-23 04:10:00+00:00,346.453,0.6,12.73,47.84626,-54.09684
2019-05-23 04:20:00+00:00,336.913,0.6,12.81,47.84626,-54.09684
2019-05-23 04:30:00+00:00,338.7531,0.55,12.89,47.84626,-54.09684
2019-05-23 04:40:00+00:00,334.7064,0.57,12.89,47.84626,-54.09684
2019-05-23 04:50:00+00:00,324.3846,0.6,12.89,47.84626,-54.09684
2019-05-23 05:00:00+00:00,319.2879,0.5,12.81,47.84626,-54.09684
2019-05-23 05:10:00+00:00,316.1897,0.44,12.73,47.84626,-54.09684
2019-05-23 05:20:00+00:00,307.1979,0.57,12.81,47.84626,-54.09684
2019-05-23 05:30:00+00:00,296.6631,0.59,12.81,47.84626,-54.09684
2019-05-23 05:40:00+00:00,295.4613,0.5,12.89,47.84626,-54.09684
2019-05-23 05:50:00+00:00,284.428,0.5,12.89,47.84626,-54.09684
2019-05-23 06:00:00+00:00,272.3647,0.6,12.81,47.84626,-54.09684
2019-05-23 06:10:00+00:00,264.0214,0.6,12.73,47.84626,-54.09684
2019-05-23 06:20:00+00:00,259.3748,0.5,12.81,47.84626,-54.09684
2019-05-23 06:30:00+00:00,249.0314,0.5,12.81,47.84626,-54.09684
2019-05-23 06:40:00+00:00,241.5131,0.6,12.81,47.84626,-54.09684
2019-05-23 06:50:00+00:00,233.2297,0.5,12.81,47.84626,-54.09684
2019-05-23 07:00:00+00:00,223.1431,0.59,12.73,47.84626,-54.09684
2019-05-23 07:10:00+00:00,219.5848,0.6,12.73,47.84626,-54.09684
2019-05-23 07:20:00+00:00,221.7164,0.55,12.81,47.84626,-54.09684
2019-05-23 07:30:00+00:00,214.0681,0.53,12.81,47.84626,-54.09684
2019-05-23 07:40:00+00:00,205.0732,0.6,12.81,47.84626,-54.09684
2019-05-23 07:50:00+00:00,206.4414,0.6,12.81,47.84626,-54.09684
2019-05-23 08:00:00+00:00,208.2431,0.59,12.73,47.84626,-54.09684
2019-05-23 08:10:00+00:00,205.0314,0.6,12.65,47.84626,-54.09684
2019-05-23 08:20:00+00:00,208.7898,0.6,12.73,47.84626,-54.09684
2019-05-23 08:30:00+00:00,215.7314,0.5,12.81,47.84626,-54.09684
2019-05-23 08:40:00+00:00,216.7498,0.59,12.81,47.84626,-54.09684
2019-05-23 08:50:00+00:00,218.1548,0.6,12.81,47.84626,-54.09684
2019-05-23 09:00:00+00:00,220.7464,0.5,12.81,47.84626,-54.09684
2019-05-23 09:10:00+00:00,222.9448,0.5,12.73,47.84626,-54.09684
2019-05-23 09:20:00+00:00,226.3481,0.55,12.81,47.84626,-54.09684
2019-05-23 09:30:00+00:00,229.0147,0.5,12.89,47.84626,-54.09684
2019-05-23 09:40:00+00:00,226.8248,0.56,13.05,47.84626,-54.09684
2019-05-23 09:50:00+00:00,227.2498,0.57,13.21,47.84626,-54.09684
2019-05-23 10:00:00+00:00,235.2347,0.5,13.21,47.84626,-54.09684
2019-05-23 10:10:00+00:00,237.7281,0.5,13.13,47.84626,-54.09684
2019-05-23 10:20:00+00:00,231.5281,0.59,13.29,47.84626,-54.09684
2019-05-23 10:30:00+00:00,233.1765,0.5,13.37,47.84626,-54.09684
2019-05-23 10:40:00+00:00,244.0731,0.5,13.84,47.84626,-54.09684
2019-05-23 10:50:00+00:00,246.5948,0.54,14.24,47.84626,-54.09684
2019-05-23 11:00:00+00:00,245.2881,0.6,14.24,47.84626,-54.09684
2019-05-23 11:10:00+00:00,250.2714,0.59,14.32,47.84626,-54.09684
2019-05-23 11:20:00+00:00,255.0164,0.59,14.56,47.84626,-54.09684
2019-05-23 11:30:00+00:00,256.2431,0.6,14.8,47.84626,-54.09684
2019-05-23 11:40:00+00:00,259.5331,0.6,14.64,47.84626,-54.09684
2019-05-23 11:50:00+00:00,265.7831,0.6,14.64,47.84626,-54.09684
2019-05-23 12:00:00+00:00,268.6164,0.66,14.56,47.84626,-54.09684
2019-05-23 12:10:00+00:00,273.1414,0.8,14.48,47.84626,-54.09684
2019-05-23 12:20:00+00:00,281.4681,0.78,14.64,47.84626,-54.09684
2019-05-23 12:30:00+00:00,290.5947,0.75,14.48,47.84626,-54.09684
2019-05-23 12:40:00+00:00,295.7897,0.83,14.56,47.84626,-54.09684
2019-05-23 12:50:00+00:00,299.5114,0.8,14.64,47.84626,-54.09684
2019-05-23 13:00:00+00:00,304.4963,0.8,14.56,47.84626,-54.09684
2019-05-23 13:10:00+00:00,308.0413,0.8,14.48,47.84626,-54.09684
2019-05-23 13:20:00+00:00,314.8196,0.8,14.56,47.84626,-54.09684
2019-05-23 13:30:00+00:00,319.8314,0.8,14.64,47.84626,-54.09684
2019-05-23 13:40:00+00:00,323.6246,0.8,14.64,47.84626,-54.09684
2019-05-23 13:50:00+00:00,321.3446,0.8,14.64,47.84626,-54.09684
2019-05-23 14:00:00+00:00,324.5813,0.78,14.64,47.84626,-54.09684
2019-05-23 14:10:00+00:00,332.8464,0.8,14.56,47.84626,-54.09684
2019-05-23 14:20:00+00:00,331.463,0.9,14.72,47.84626,-54.09684
2019-05-23 14:30:00+00:00,324.443,1.03,14.64,47.84626,-54.09684
2019-05-23 14:40:00+00:00,324.5463,0.87,14.8,47.84626,-54.09684
2019-05-23 14:50:00+00:00,327.6846,0.89,14.72,47.84626,-54.09684
2019-05-23 15:00:00+00:00,325.8347,0.99,14.56,47.84626,-54.09684
2019-05-23 15:10:00+00:00,326.7796,1.1,14.48,47.84626,-54.09684
2019-05-23 15:20:00+00:00,329.4779,0.9,14.64,47.84626,-54.09684
2019-05-23 15:30:00+00:00,328.748,0.9,14.56,47.84626,-54.09684
2019-05-23 15:40:00+00:00,327.1597,0.92,14.64,47.84626,-54.09684
2019-05-23 15:50:00+00:00,326.3346,0.9,14.56,47.84626,-54.09684
2019-05-23 16:00:00+00:00,321.6296,0.97,14.4,47.84626,-54.09684
2019-05-23 16:10:00+00:00,315.9496,1.0,14.24,47.84626,-54.09684
2019-05-23 16:20:00+00:00,310.313,0.98,14.32,47.84626,-54.09684
2019-05-23 16:30:00+00:00,309.0831,0.95,14.32,47.84626,-54.09684
2019-05-23 16:40:00+00:00,307.6597,0.9,14.4,47.84626,-54.09684
2019-05-23 16:50:00+00:00,303.768,0.97,14.48,47.84626,-54.09684
2019-05-23 17:00:00+00:00,302.1364,1.0,14.48,47.84626,-54.09684
2019-05-23 17:10:00+00:00,307.2147,0.89,14.48,47.84626,-54.09684
2019-05-23 17:20:00+00:00,303.608,1.06,14.64,47.84626,-54.09684
2019-05-23 17:30:00+00:00,292.9597,1.22,14.56,47.84626,-54.09684
2019-05-23 17:40:00+00:00,286.5631,0.6,14.4,47.84626,-54.09684
2019-05-23 17:50:00+00:00,285.0347,0.6,14.32,47.84626,-54.09684
2019-05-23 18:00:00+00:00,277.333,0.65,14.32,47.84626,-54.09684
2019-05-23 18:10:00+00:00,264.7331,1.3,14.24,47.84626,-54.09684
2019-05-23 18:20:00+00:00,254.1331,0.9,14.4,47.84626,-54.09684
2019-05-23 18:30:00+00:00,244.693,1.05,14.48,47.84626,-54.09684
2019-05-23 18:40:00+00:00,233.2214,1.2,14.32,47.84626,-54.09684
2019-05-23 18:50:00+00:00,228.5414,1.27,14.4,47.84626,-54.09684
2019-05-23 19:00:00+00:00,229.5614,1.1,14.32,47.84626,-54.09684
2019-05-23 19:10:00+00:00,222.6647,1.3,14.24,47.84626,-54.09684
2019-05-23 19:20:00+00:00,210.7348,1.42,14.4,47.84626,-54.09684
2019-05-23 19:30:00+00:00,212.3548,1.4,14.48,47.84626,-54.09684
2019-05-23 19:40:00+00:00,214.0581,1.3,14.48,47.84626,-54.09684
2019-05-23 19:50:00+00:00,199.3531,1.5,14.4,47.84626,-54.09684
2019-05-23 20:00:00+00:00,189.7915,1.5,14.32,47.84626,-54.09684
2019-05-23 20:10:00+00:00,195.2782,1.5,14.24,47.84626,-54.09684
2019-05-23 20:20:00+00:00,196.3665,1.49,14.4,47.84626,-54.09684
2019-05-23 20:30:00+00:00,194.7915,1.5,14.48,47.84626,-54.09684
2019-05-23 20:40:00+00:00,201.1464,1.5,14.4,47.84626,-54.09684
2019-05-23 20:50:00+00:00,207.6364,1.5,14.32,47.84626,-54.09684
2019-05-23 21:00:00+00:00,207.1481,1.59,14.24,47.84626,-54.09684
2019-05-23 21:10:00+00:00,212.1831,1.59,14.0,47.84626,-54.09684
2019-05-23 21:20:00+00:00,221.0815,1.4,14.08,47.84626,-54.09684
2019-05-23 21:30:00+00:00,223.0182,1.4,14.0,47.84626,-54.09684
2019-05-23 21:40:00+00:00,225.1697,1.49,14.08,47.84626,-54.09684
2019-05-23 21:50:00+00:00,230.9014,1.3,14.08,47.84626,-54.09684
2019-05-23 22:00:00+00:00,236.4631,1.2,13.92,47.84626,-54.09684
2019-05-23 22:10:00+00:00,239.0048,1.23,13.76,47.84626,-54.09684
2019-05-23 22:20:00+00:00,241.0681,1.29,13.76,47.84626,-54.09684
2019-05-23 22:30:00+00:00,242.9247,1.34,13.76,47.84626,-54.09684
2019-05-23 22:40:00+00:00,242.7448,1.44,13.68,47.84626,-54.09684
2019-05-23 22:50:00+00:00,244.1147,1.47,13.68,47.84626,-54.09684
2019-05-23 23:00:00+00:00,250.2098,1.4,13.6,47.84626,-54.09684
2019-05-23 23:10:00+00:00,252.0947,1.4,13.37,47.84626,-54.09684
2019-05-23 23:20:00+00:00,252.1731,1.4,13.37,47.84626,-54.09684
2019-05-23 23:30:00+00:00,255.3631,1.3,13.37,47.84626,-54.09684
2019-05-23 23:40:00+00:00,263.0431,1.2,13.29,47.84626,-54.09684
2019-05-23 23:50:00+00:00,265.7714,1.2,13.29,47.84626,-54.09684
